Zurück zum Katalog

CZ-6A DEB

AktivPO
NORAD 54308·DEBRIS·🇨🇳 China

Gestartet Nov 11, 2022 von Taiyuan Satellite Launch Center

Loading…

Nächste Überflüge (nächste 24 Stunden)

TLE

AktuellSource: Space-Track

Epoche: Sep 14, 2026, 11:38 UTC

1 54308U 22151BB  26257.48483865  .00089814  00000-0  40819-2 0  9993
2 54308  98.6288 352.9837 0024980 291.4664  68.3903 15.20092355204417

Verfolge CZ-6A DEB in Echtzeit mit AllMySat

Download on the App Store